GW2930 Weather Reports


time (UTC)temp
F
wind
direction
speed
knots
gust
knots
rain 1hr
in
rain 24hr
in
rain mn
in
humidity
%
barometer
mb
20260506061848 56 243 1.7 6.1 0.00 0.00 0.00 90 1019.2
20260506061345 56 210 1.7 4.3 0.00 0.00 0.00 90 1019.2
20260506060843 56 222 1.7 4.3 0.00 0.00 0.00 90 1019.3
20260506060341 56 222 0.9 4.3 0.00 0.00 0.00 90 1019.2
20260506051313 57 232 1.7 4.3 0.00 0.00 0.00 88 1019.0
20260506050811 57 254 0.9 5.2 0.00 0.00 0.00 88 1019.0
20260506050308 57 233 0.9 3.5 0.00 0.00 0.00 88 1018.8
20260506044758 57 229 0.0 4.3 0.00 0.00 0.00 88 1018.8
20260506044256 57 231 1.7 3.5 0.00 0.00 0.00 88 1018.7
20260506043753 57 222 0.0 4.3 0.00 0.00 0.00 88 1018.5
20260506043250 57 252 1.7 6.1 0.00 0.00 0.00 88 1018.7
20260506042749 57 239 1.7 5.2 0.00 0.00 0.00 88 1018.7
20260506042247 57 248 0.9 4.3 0.00 0.00 0.00 87 1018.7
20260506041745 57 232 1.7 3.5 0.00 0.00 0.00 88 1018.6
20260506041242 57 236 0.9 4.3 0.00 0.00 0.00 87 1018.6
20260506040739 57 225 1.7 5.2 0.00 0.00 0.00 87 1018.7
20260506040236 57 242 0.0 4.3 0.00 0.00 0.00 88 1018.7
20260506035733 57 207 0.0 4.3 0.00 0.00 0.00 88 1018.4
20260506035230 57 269 0.0 4.3 0.00 0.00 0.00 88 1018.3
20260506034727 57 232 0.9 3.5 0.00 0.00 0.00 88 1018.3
20260506034224 57 228 0.9 3.5 0.00 0.00 0.00 88 1018.4
20260506033721 57 222 1.7 3.5 0.00 0.00 0.00 89 1018.3
20260506033218 57 222 2.6 3.5 0.00 0.00 0.00 89 1018.1
20260506032715 57 231 0.0 2.6 0.00 0.00 0.00 89 1018.3
20260506032212 57 40 1.7 3.5 0.00 0.00 0.00 89 1018.2
20260506031709 57 228 1.7 3.5 0.00 0.00 0.00 89 1018.1
20260506031206 57 212 0.0 3.5 0.00 0.00 0.00 88 1017.9
20260506030704 57 238 1.7 2.6 0.00 0.00 0.00 88 1018.0
20260506030201 57 241 1.7 2.6 0.00 0.00 0.00 88 1017.5
20260506025658 57 186 0.0 5.2 0.00 0.00 0.00 88 1017.7
20260506025154 57 231 1.7 4.3 0.00 0.00 0.00 87 1017.6
20260506024646 57 227 0.9 3.5 0.00 0.00 0.00 87 1017.6
20260506024142 58 220 0.0 3.5 0.00 0.00 0.00 87 1017.8
20260506023638 58 172 0.0 2.6 0.00 0.00 0.00 86 1017.7
20260506023136 58 236 0.9 3.5 0.00 0.00 0.00 86 1017.9
20260506022633 58 267 1.7 2.6 0.00 0.00 0.00 86 1017.9
20260506022130 58 252 3.5 4.3 0.00 0.00 0.00 85 1018.0
20260506021628 58 265 0.9 6.1 0.00 0.00 0.00 85 1017.5
20260506021125 59 283 0.0 3.5 0.00 0.00 0.00 84 1017.8
20260506020622 59 48 0.0 4.3 0.00 0.00 0.00 83 1017.6
20260506020120 59 238 1.7 8.7 0.00 0.00 0.00 82 1017.8
20260506015617 59 296 0.9 3.5 0.00 0.00 0.00 82 1017.6
20260506015114 59 221 1.7 4.3 0.00 0.00 0.00 82 1017.7
20260506014612 59 298 0.0 3.5 0.00 0.00 0.00 82 1017.6
20260506014107 59 201 0.9 4.3 0.00 0.00 0.00 81 1017.6
20260506013605 59 256 1.7 5.2 0.00 0.00 0.00 81 1017.7
20260506013102 59 268 0.9 4.3 0.00 0.00 0.00 81 1017.6
20260506012558 59 239 0.0 4.3 0.00 0.00 0.00 80 1017.3
20260506012055 59 247 1.7 4.3 0.00 0.00 0.00 80 1017.3
20260506011553 59 167 0.9 6.1 0.00 0.00 0.00 81 1017.4
20260506011048 60 298 2.6 3.5 0.00 0.00 0.00 80 1017.6
20260506010548 60 249 1.7 4.3 0.00 0.00 0.00 80 1017.5
20260506010044 61 195 1.7 2.6 0.00 0.00 0.00 79 1017.5
20260506005541 60 260 2.6 3.5 0.00 0.00 0.00 79 1017.6
20260506005037 60 263 2.6 4.3 0.00 0.00 0.00 78 1017.4
20260506004535 60 230 0.9 6.1 0.00 0.00 0.00 77 1017.6
20260506004031 61 334 1.7 6.1 0.00 0.00 0.00 77 1017.4
20260506003528 61 284 1.7 5.2 0.00 0.00 0.00 77 1017.3
20260506003024 61 232 1.7 6.1 0.00 0.00 0.00 76 1017.4
20260506002520 62 118 0.9 3.5 0.00 0.00 0.00 76 1017.4
20260506002016 62 154 0.0 7.8 0.00 0.00 0.00 75 1017.4
20260506001512 62 326 2.6 7.8 0.00 0.00 0.00 74 1017.3
20260506001010 63 313 1.7 7.8 0.00 0.00 0.00 73 1017.3
20260506000507 63 299 4.3 8.7 0.00 0.00 0.00 72 1017.2
20260506000004 63 260 2.6 6.1 0.00 0.00 0.00 72 1017.2
20260505235502 63 258 0.0 7.0 0.00 0.00 0.00 72 1017.1
20260505234959 63 278 1.7 6.1 0.00 0.00 0.00 72 1017.1
20260505234456 63 245 5.2 7.8 0.00 0.00 0.00 71 1017.3
20260505233953 64 299 4.3 7.0 0.00 0.00 0.00 69 1017.2
20260505233450 64 12 1.7 10.4 0.00 0.00 0.00 70 1017.1
20260505232947 65 26 3.5 7.8 0.00 0.00 0.00 68 1017.1
20260505232446 65 24 1.7 4.3 0.00 0.00 0.00 68 1017.3
20260505231942 66 307 1.7 7.8 0.00 0.00 0.00 67 1017.2
20260505231440 67 165 1.7 6.1 0.00 0.00 0.00 66 1017.2
20260505230938 67 355 2.6 6.1 0.00 0.00 0.00 66 1017.1
20260505230435 66 223 0.0 7.8 0.00 0.00 0.00 69 1017.2
20260505225931 65 346 1.7 10.4 0.00 0.00 0.00 71 1016.9
20260505225429 65 332 2.6 7.0 0.00 0.00 0.00 71 1017.2
20260505224924 65 244 4.3 8.7 0.00 0.00 0.00 70 1017.2
20260505224421 64 218 1.7 4.3 0.00 0.00 0.00 72 1017.4
20260505223918 64 38 0.9 7.0 0.00 0.00 0.00 72 1017.3
20260505223416 67 188 1.7 6.1 0.00 0.00 0.00 67 1017.4
20260505222912 67 321 2.6 4.3 0.00 0.00 0.00 68 1017.5
20260505222408 65 279 1.7 8.7 0.00 0.00 0.00 71 1017.3
20260505221904 64 304 1.7 7.8 0.00 0.00 0.00 71 1017.4
20260505221401 65 261 4.3 7.8 0.00 0.00 0.00 72 1017.5
20260505220858 63 282 3.5 7.8 0.00 0.00 0.00 73 1017.3
20260505220355 64 288 2.6 12.2 0.00 0.00 0.00 73 1017.3
20260505215853 64 334 3.5 9.6 0.00 0.00 0.00 73 1017.5
20260505215351 64 245 0.9 7.8 0.00 0.00 0.00 75 1017.6
20260505214849 64 252 0.9 5.2 0.00 0.00 0.00 74 1017.4
20260505214346 64 224 2.6 7.0 0.00 0.00 0.00 73 1017.4
20260505213843 63 287 2.6 7.8 0.00 0.00 0.00 74 1017.3
20260505213341 63 282 3.5 7.8 0.00 0.00 0.00 75 1017.5
20260505212837 63 203 1.7 9.6 0.00 0.00 0.00 75 1017.7
20260505212334 63 261 2.6 7.8 0.00 0.00 0.00 74 1017.7
20260505211830 63 252 3.5 10.4 0.00 0.00 0.00 74 1017.6
20260505211328 64 315 1.7 7.8 0.00 0.00 0.00 73 1017.9
20260505210824 64 300 1.7 5.2 0.00 0.00 0.00 73 1017.6
20260505210321 64 275 3.5 7.0 0.00 0.00 0.00 71 1017.7
20260505205818 64 279 0.0 10.4 0.00 0.00 0.00 73 1017.7
20260505205316 63 255 2.6 7.8 0.00 0.00 0.00 73 1017.6
20260505204812 65 317 2.6 8.7 0.00 0.00 0.00 71 1017.6
20260505204311 64 134 0.9 6.1 0.00 0.00 0.00 71 1017.6
20260505203808 64 300 1.7 8.7 0.00 0.00 0.00 72 1017.5
20260505203304 64 326 2.6 7.8 0.00 0.00 0.00 71 1017.4
20260505202800 64 336 3.5 8.7 0.00 0.00 0.00 71 1017.7
20260505202256 64 229 2.6 7.8 0.00 0.00 0.00 72 1017.7
20260505201753 64 214 1.7 6.1 0.00 0.00 0.00 71 1017.6
20260505201251 64 239 0.0 5.2 0.00 0.00 0.00 72 1017.7
20260505200749 63 280 0.0 5.2 0.00 0.00 0.00 72 1017.8
20260505200246 63 324 1.7 8.7 0.00 0.00 0.00 72 1017.7
20260505195741 63 350 0.0 10.4 0.00 0.00 0.00 72 1017.8
20260505195239 62 277 0.0 5.2 0.00 0.00 0.00 74 1017.7
20260505194736 63 273 0.9 7.0 0.00 0.00 0.00 72 1017.8
20260505194232 63 207 0.0 5.2 0.00 0.00 0.00 72 1017.8
20260505193728 62 288 2.6 7.8 0.00 0.00 0.00 74 1017.8
20260505193226 62 301 1.7 8.7 0.00 0.00 0.00 76 1017.9
20260505192724 61 262 3.5 6.1 0.00 0.00 0.00 76 1017.8
20260505192222 61 186 2.6 7.8 0.00 0.00 0.00 76 1018.0
20260505191720 62 316 1.7 5.2 0.00 0.00 0.00 75 1018.1
20260505191218 61 242 2.6 7.0 0.00 0.00 0.00 74 1017.9
20260505190714 62 322 2.6 4.3 0.00 0.00 0.00 75 1017.7
20260505190213 61 333 1.7 3.5 0.00 0.00 0.00 77 1018.1
20260505185710 60 124 0.0 6.1 0.00 0.00 0.00 78 1018.1
20260505185207 60 264 3.5 7.0 0.00 0.00 0.00 79 1018.0
20260505184703 60 100 0.0 3.5 0.00 0.00 0.00 79 1018.0
20260505184201 60 359 0.9 4.3 0.00 0.00 0.00 78 1018.1
20260505183657 61 242 2.6 4.3 0.00 0.00 0.00 77 1018.1
20260505183155 61 233 0.0 6.1 0.00 0.00 0.00 77 1018.1
20260505182650 60 135 0.0 2.6 0.00 0.00 0.00 78 1017.9
20260505182148 60 74 0.0 4.3 0.00 0.00 0.00 78 1018.0
20260505181644 60 111 0.9 6.1 0.00 0.00 0.00 78 1018.0
20260505181142 60 317 1.7 3.5 0.00 0.00 0.00 77 1017.8
20260505180638 60 289 0.9 2.6 0.00 0.00 0.00 78 1017.7
20260505180135 60 276 1.7 6.1 0.00 0.00 0.00 79 1017.6
20260505175631 59 269 0.0 5.2 0.00 0.00 0.00 79 1017.5
20260505175128 59 211 1.7 6.1 0.00 0.00 0.00 79 1017.5
20260505174624 59 240 2.6 6.1 0.00 0.00 0.00 79 1017.4
20260505174120 58 278 0.0 4.3 0.00 0.00 0.00 81 1017.1
20260505173617 58 242 3.5 6.1 0.00 0.00 0.00 83 1017.4
20260505173115 57 218 3.5 5.2 0.00 0.00 0.00 84 1017.4
20260505172612 57 183 1.7 4.3 0.00 0.00 0.00 85 1017.4
20260505172109 57 287 1.7 5.2 0.00 0.00 0.00 86 1017.3
20260505171603 57 289 1.7 5.2 0.00 0.00 0.00 86 1017.3
20260505171100 57 47 0.0 4.3 0.00 0.00 0.00 86 1017.4
20260505170557 57 204 1.7 6.1 0.00 0.00 0.00 86 1017.2
20260505170053 57 105 1.7 4.3 0.00 0.00 0.00 86 1017.2
20260505165548 57 292 0.9 3.5 0.00 0.00 0.00 86 1017.5
20260505165045 57 2 0.0 4.3 0.00 0.00 0.00 86 1017.7
20260505164541 57 298 1.7 3.5 0.00 0.00 0.00 86 1017.4
20260505164038 57 237 0.0 4.3 0.00 0.00 0.00 85 1017.2
20260505163537 57 225 1.7 3.5 0.00 0.00 0.00 84 1017.1
20260505163033 57 277 4.3 6.1 0.00 0.00 0.00 82 1017.1
20260505162526 57 305 3.5 4.3 0.00 0.00 0.00 81 1017.3
20260505162024 57 264 3.5 5.2 0.00 0.00 0.00 80 1016.9
20260505161520 57 208 1.7 4.3 0.00 0.00 0.00 80 1016.7
20260505161017 57 236 1.7 3.5 0.00 0.00 0.00 79 1016.8
20260505160515 57 29 0.0 4.3 0.00 0.00 0.00 80 1016.7
20260505152946 57 299 0.0 5.2 0.00 0.00 0.00 81 1016.7
20260505152443 57 247 2.6 6.1 0.00 0.00 0.00 82 1016.8
20260505151938 56 246 2.6 5.2 0.00 0.00 0.00 83 1016.7
20260505151434 56 212 1.7 4.3 0.00 0.00 0.00 83 1016.8
20260505150931 56 218 3.5 5.2 0.00 0.00 0.00 83 1016.8
20260505150428 56 223 2.6 5.2 0.00 0.00 0.00 83 1016.9
20260505140358 53 219 2.6 5.2 0.00 0.00 0.00 89 1016.0
20260505124812 52 214 1.7 4.3 0.00 0.00 0.00 90 1015.9
20260505124308 52 283 0.9 5.2 0.00 0.00 0.00 90 1016.1
20260505123804 52 221 1.7 6.1 0.00 0.00 0.00 90 1016.1
20260505123301 52 197 2.6 4.3 0.00 0.00 0.00 90 1015.9
20260505122757 52 207 1.7 5.2 0.00 0.00 0.00 90 1016.1
20260505122255 52 202 3.5 5.2 0.00 0.00 0.00 90 1015.8
20260505121751 52 205 2.6 3.5 0.00 0.00 0.00 90 1016.1
20260505121248 52 180 0.9 5.2 0.00 0.00 0.00 91 1016.1
20260505120744 52 235 1.7 4.3 0.00 0.00 0.00 91 1015.9
20260505120241 52 109 0.0 3.5 0.00 0.00 0.00 92 1016.0
20260505115739 52 219 2.6 5.2 0.00 0.00 0.00 92 1015.9
20260505115237 52 207 1.7 4.3 0.00 0.00 0.00 92 1015.5
20260505114734 52 210 2.6 6.1 0.00 0.00 0.00 92 1015.7
20260505114230 52 196 1.7 5.2 0.00 0.00 0.00 92 1015.9
20260505113727 52 205 0.9 3.5 0.00 0.00 0.00 92 1015.8
20260505113224 52 227 2.6 5.2 0.00 0.00 0.00 92 1015.9
20260505112720 52 191 2.6 6.1 0.00 0.00 0.00 92 1015.7
20260505112218 52 241 2.6 5.2 0.00 0.00 0.00 93 1015.8
20260505111717 52 206 2.6 4.3 0.00 0.00 0.00 94 1015.7
20260505111214 52 218 1.7 3.5 0.00 0.00 0.00 94 1015.8
20260505110709 52 206 1.7 4.3 0.00 0.00 0.00 94 1015.8
20260505110207 52 246 0.0 5.2 0.00 0.00 0.00 95 1015.8
20260505102142 52 223 2.6 5.2 0.00 0.00 0.00 95 1016.0
20260505101641 52 219 1.7 4.3 0.00 0.00 0.00 95 1015.6
20260505101137 52 211 2.6 4.3 0.00 0.00 0.00 95 1016.0
20260505100633 52 210 0.0 4.3 0.00 0.00 0.00 95 1015.8
20260505100130 52 215 1.7 5.2 0.00 0.00 0.00 95 1015.8
20260505095626 52 210 1.7 4.3 0.00 0.00 0.00 95 1016.1
20260505095123 52 209 2.6 5.2 0.00 0.00 0.00 94 1015.9
20260505094620 52 226 0.0 4.3 0.00 0.00 0.00 94 1016.1
20260505094116 52 220 0.0 5.2 0.00 0.00 0.00 94 1016.1
20260505093613 52 240 0.0 3.5 0.00 0.00 0.00 94 1016.0
20260505093110 52 205 0.0 4.3 0.00 0.00 0.00 94 1016.3
20260505092607 52 222 0.9 4.3 0.00 0.00 0.00 94 1016.1
20260505092106 52 216 1.7 4.3 0.00 0.00 0.00 94 1016.1
20260505091602 52 234 1.7 5.2 0.00 0.00 0.00 94 1016.2
20260505091100 52 215 2.6 4.3 0.00 0.00 0.00 94 1016.3
20260505090558 52 240 0.0 4.3 0.00 0.00 0.00 93 1016.3
20260505090056 52 205 2.6 5.2 0.00 0.00 0.00 93 1016.2
20260505085553 52 230 0.9 5.2 0.00 0.00 0.00 93 1016.1
20260505085051 52 216 2.6 4.3 0.00 0.00 0.00 93 1016.2
20260505084549 52 223 1.7 4.3 0.00 0.00 0.00 93 1016.1
20260505084047 52 200 1.7 4.3 0.00 0.00 0.00 93 1016.3
20260505083543 52 199 0.9 5.2 0.00 0.00 0.00 93 1016.3
20260505083040 52 211 2.6 5.2 0.00 0.00 0.00 93 1016.3
20260505082536 52 209 0.0 4.3 0.00 0.00 0.00 93 1016.3
20260505082033 52 211 2.6 5.2 0.00 0.00 0.00 93 1016.4
20260505081529 52 216 2.6 4.3 0.00 0.00 0.00 93 1016.7
20260505081027 52 211 1.7 6.1 0.00 0.00 0.00 93 1016.5
20260505080523 52 214 3.5 5.2 0.00 0.00 0.00 93 1016.6
20260505080020 52 223 0.9 4.3 0.00 0.00 0.00 93 1016.5
20260505075516 52 210 3.5 4.3 0.00 0.00 0.00 93 1016.7
20260505075013 52 211 0.9 3.5 0.00 0.00 0.00 93 1016.4
20260505074510 52 231 1.7 4.3 0.00 0.00 0.00 93 1016.8
20260505074007 52 218 1.7 4.3 0.00 0.00 0.00 93 1016.6
20260505073504 52 224 1.7 4.3 0.00 0.00 0.00 93 1016.6
20260505073002 52 214 2.6 5.2 0.00 0.00 0.00 93 1016.7
20260505072458 52 212 1.7 4.3 0.00 0.00 0.00 94 1016.6
20260505071954 52 222 1.7 3.5 0.00 0.00 0.00 94 1016.7
20260505071449 52 194 0.9 4.3 0.00 0.00 0.00 93 1016.5
20260505070948 52 219 4.3 4.3 0.00 0.00 0.00 94 1016.5
20260505070444 52 209 2.6 3.5 0.00 0.00 0.00 93 1016.4
20260505065940 52 225 2.6 4.3 0.00 0.00 0.00 94 1016.4
20260505065437 51 224 0.0 4.3 0.00 0.00 0.00 94 1016.5
20260505064933 51 175 0.0 4.3 0.00 0.00 0.00 94 1016.5
20260505064431 51 219 1.7 5.2 0.00 0.00 0.00 93 1016.5
20260505063929 51 206 1.7 4.3 0.00 0.00 0.00 93 1016.6
20260505063425 51 215 2.6 4.3 0.00 0.00 0.00 93 1016.4
20260505062922 51 229 1.7 4.3 0.00 0.00 0.00 93 1016.5
20260505062419 52 231 2.6 3.5 0.00 0.00 0.00 93 1016.6